Flag for U.S.A. Weather past 2 weeks in Wilmington, Delaware, U.S.A.

Now
75 °F

Clear.


Feels Like: 77 °F
Forecast: 67 / 82 °F
Wind: 9 mph from Southeast

Location: New Castle County Airport

Current Time: Aug 20, 2014 at 9:20:15 PM

Latest Report: Aug 20, 2014 at 8:51 PM


Visibility: 10 mi

Pressure: 30.00 "Hg

Humidity: 71%

Dew point: 65 °F

Location of WilmingtonLocation

Historic Weather in Wilmington — Graph

°F

Wilmington temperature yesterday

Maximum temperature yesterday: 82 °F (at 12:51 PM)
Minimum temperature yesterday: 67 °F (at 5:51 AM)
Average temperature yesterday: 75 °F

Past Weeks' High & Low Weather Summary

 TemperatureHumidityPressure
High85 °F (Aug 10, 1:51 PM)97% (Aug 12, 2:51 PM)30.15 "Hg (Aug 12, 2:51 PM)
Low56 °F (Aug 16, 6:51 AM)31% (Aug 10, 1:51 PM)29.73 "Hg (Aug 13, 3:51 PM)
Average73 °F67%29.97 "Hg
* Reported Aug 5 7:51 PM — Aug 20 7:51 PM, Wilmington, Weather by CustomWeather, © 2014

Note: Actual official high and low records may vary slightly from our data, if they occured in-between our weather recording intervals... More about our weather records

Advertising

Wilmington weather history for previous 24 hours

 ConditionsComfort  
Time TempWeatherWind HumidityBarometerVisibility
7:51 PM
Aug 20
76 °FPassing clouds.10 mph67%29.99 "Hg10 mi
6:51 PM78 °FOvercast.14 mph62%30.00 "Hg10 mi
5:51 PM80 °FScattered clouds.16 mph56%29.98 "Hg10 mi
4:51 PM81 °FPartly sunny.12 mph58%29.98 "Hg10 mi
3:51 PM82 °FSunny.9 mph55%29.97 "Hg10 mi
2:51 PM82 °FScattered clouds.8 mph55%29.96 "Hg10 mi
1:51 PM81 °FPassing clouds.9 mph51%29.98 "Hg10 mi
12:51 PM81 °FPassing clouds.8 mph54%29.99 "Hg10 mi
11:51 AM79 °FBroken clouds.7 mph50%30.01 "Hg10 mi
10:51 AM78 °FPassing clouds.7 mph58%30.02 "Hg10 mi
9:51 AM76 °FScattered clouds.7 mph62%30.01 "Hg10 mi
8:51 AM75 °FOvercast.5 mph69%29.99 "Hg10 mi
7:51 AM73 °FScattered clouds.No wind79%29.98 "Hg10 mi
6:51 AM71 °FOvercast.3 mph84%29.97 "Hg10 mi
5:51 AM71 °FPassing clouds.6 mph84%29.95 "Hg10 mi
4:51 AM72 °FOvercast.3 mph81%29.94 "Hg10 mi
3:51 AM72 °FPartly cloudy.No wind84%29.94 "Hg10 mi
2:51 AM72 °FOvercast.3 mph81%29.93 "Hg10 mi
1:51 AM72 °FMostly cloudy.No wind81%29.93 "Hg10 mi
12:51 AM72 °FPassing clouds.3 mph78%29.94 "Hg10 mi
11:51 PM
Aug 19
73 °FOvercast.8 mph76%29.93 "Hg10 mi
10:51 PM74 °FPassing clouds.10 mph74%29.92 "Hg10 mi
9:51 PM76 °FOvercast.10 mph74%29.91 "Hg10 mi
Weather by CustomWeather, © 2014

See weather overviewHow to use our weather pages